KG6SIB Weather Reports


Display with metric or nautical units.
time (UTC)temp
F
wind
direction
speed
MPH
gust
MPH
rain 1hr
in
rain 24hr
in
rain mn
in
humidity
%
barometer
mb
20180119131708 44 34 4.0 8.0 0.00 0.00 0.00 68 1014.3
20180119131145 44 51 5.0 8.0 0.00 0.00 0.00 68 1014.3
20180119130645 44 41 6.0 8.0 0.00 0.00 0.00 67 1014.3
20180119130203 44 48 7.0 9.0 0.00 0.00 0.00 66 1014.3
20180119125645 45 36 6.0 9.0 0.00 0.00 0.00 65 1015.4
20180119125145 44 40 6.0 8.0 0.00 0.00 0.00 66 1015.2
20180119124645 44 40 7.0 7.0 0.00 0.00 0.00 67 1015.3
20180119124204 44 32 5.0 7.0 0.00 0.00 0.00 66 1015.3
20180119123645 44 30 6.0 7.0 0.00 0.00 0.00 65 1015.3
20180119123145 44 66 4.0 7.0 0.00 0.00 0.00 65 1015.3
20180119122644 44 49 5.0 9.0 0.00 0.00 0.00 64 1015.3
20180119122202 45 37 5.0 9.0 0.00 0.00 0.00 63 1015.4
20180119121702 45 41 7.0 8.0 0.00 0.00 0.00 62 1015.4
20180119120653 44 37 5.0 9.0 0.00 0.00 0.00 64 1015.1
20180119120152 45 44 8.0 9.0 0.00 0.00 0.00 62 1015.3
20180119115652 45 50 6.0 9.0 0.00 0.00 0.00 60 1016.0
20180119115152 46 30 6.0 9.0 0.00 0.00 0.00 60 1016.3
20180119114651 45 53 4.0 9.0 0.00 0.00 0.00 61 1016.0
20180119114152 45 37 7.0 9.0 0.00 0.00 0.00 61 1016.1
20180119113652 45 39 6.0 8.0 0.00 0.00 0.00 61 1016.1
20180119113152 45 58 5.0 8.0 0.00 0.00 0.00 61 1016.1
20180119112652 45 41 5.0 8.0 0.00 0.00 0.00 60 1016.1
20180119112152 46 60 6.0 8.0 0.00 0.00 0.00 60 1016.2
20180119111650 46 57 6.0 10.0 0.00 0.00 0.00 59 1016.3
20180119111151 46 58 5.0 10.0 0.00 0.00 0.00 58 1016.4
20180119110652 46 63 7.0 9.0 0.00 0.00 0.00 59 1016.4
20180119110151 46 49 5.0 9.0 0.00 0.00 0.00 59 1016.4
20180119105650 46 32 6.0 9.0 0.00 0.00 0.00 58 1016.7
20180119105150 47 56 6.0 8.0 0.00 0.00 0.00 57 1016.9
20180119104651 47 41 8.0 8.0 0.00 0.00 0.00 57 1016.9
20180119104150 48 28 7.0 8.0 0.00 0.00 0.00 54 1016.9
20180119103650 48 49 5.0 7.0 0.00 0.00 0.00 55 1016.9
20180119103152 47 46 2.0 6.0 0.00 0.00 0.00 57 1016.8
20180119102651 47 53 6.0 6.0 0.00 0.00 0.00 57 1016.9
20180119102208 47 45 5.0 6.0 0.00 0.00 0.00 57 1016.9
20180119101651 47 54 5.0 6.0 0.00 0.00 0.00 58 1016.9
20180119101151 46 45 2.0 4.0 0.00 0.00 0.00 59 1016.8
20180119100653 46 36 3.0 6.0 0.00 0.00 0.00 59 1016.7
20180119100208 46 34 4.0 6.0 0.00 0.00 0.00 59 1016.7
20180119095650 46 52 4.0 6.0 0.00 0.00 0.00 59 1017.2
20180119095152 46 61 2.0 7.0 0.00 0.00 0.00 59 1017.2
20180119094654 46 55 4.0 8.0 0.00 0.00 0.00 59 1017.2
20180119094152 46 57 4.0 8.0 0.00 0.00 0.00 58 1017.2
20180119093651 46 46 4.0 9.0 0.00 0.00 0.00 59 1017.3
20180119093210 46 56 6.0 9.0 0.00 0.00 0.00 59 1017.3
20180119092656 46 52 6.0 9.0 0.00 0.00 0.00 59 1017.4
20180119092150 46 21 7.0 9.0 0.00 0.00 0.00 58 1017.4
20180119091652 46 24 8.0 9.0 0.00 0.00 0.00 58 1017.3
20180119091209 46 49 7.0 10.0 0.00 0.00 0.00 59 1017.4
20180119090653 46 44 7.0 10.0 0.00 0.00 0.00 58 1017.4
20180119090154 47 37 8.0 10.0 0.00 0.00 0.00 58 1017.4
20180119085651 48 29 8.0 10.0 0.00 0.00 0.00 56 1017.5
20180119085153 48 60 5.0 8.0 0.00 0.00 0.00 56 1017.5
20180119084652 48 68 5.0 8.0 0.00 0.00 0.00 57 1017.6
20180119084153 48 28 6.0 9.0 0.00 0.00 0.00 56 1017.7
20180119083654 48 65 5.0 9.0 0.00 0.00 0.00 55 1017.6
20180119083158 48 53 8.0 8.0 0.00 0.00 0.00 56 1017.7
20180119082659 49 59 8.0 8.0 0.00 0.00 0.00 55 1017.7
20180119082215 48 46 6.0 7.0 0.00 0.00 0.00 57 1017.7
20180119080704 47 33 3.0 7.0 0.00 0.00 0.00 59 1017.7
20180119075726 46 37 7.0 8.0 0.00 0.00 0.00 60 1017.5
20180119075208 46 41 4.0 9.0 0.00 0.00 0.00 60 1017.6
20180119074708 46 54 7.0 10.0 0.00 0.00 0.00 60 1017.6
20180119033213 48 53 4.0 8.0 0.00 0.00 0.00 68 1015.4
20180119025655 49 38 5.0 7.0 0.00 0.00 0.00 68 1015.5
20180119005721 60 230 1.0 4.0 0.00 0.00 0.00 56 1016.6
20180119004721 63 241 0.0 4.0 0.00 0.00 0.00 50 1017.0
20180118231659 68 283 5.0 10.0 0.00 0.00 0.00 36 1017.9
20180118231155 68 278 7.0 10.0 0.00 0.00 0.00 36 1017.9
20180118230655 69 294 3.0 8.0 0.00 0.00 0.00 36 1017.9
20180118230156 69 300 5.0 7.0 0.00 0.00 0.00 35 1017.8
20180118225654 69 304 2.0 7.0 0.00 0.00 0.00 36 1017.8
20180118224657 69 267 4.0 8.0 0.00 0.00 0.00 34 1017.8
20180118224154 69 248 4.0 9.0 0.00 0.00 0.00 34 1017.7
20180118223705 70 264 6.0 9.0 0.00 0.00 0.00 34 1017.7
20180118223147 70 212 5.0 9.0 0.00 0.00 0.00 32 1017.7
20180118222706 70 224 5.0 8.0 0.00 0.00 0.00 31 1017.5
20180118222151 71 245 3.0 8.0 0.00 0.00 0.00 31 1017.8
20180118221650 71 283 4.0 10.0 0.00 0.00 0.00 31 1017.8
20180118221149 71 262 5.0 10.0 0.00 0.00 0.00 29 1017.8
20180118220649 72 233 9.0 10.0 0.00 0.00 0.00 29 1017.8
20180118220204 72 199 5.0 10.0 0.00 0.00 0.00 28 1017.8
20180118215647 71 226 4.0 7.0 0.00 0.00 0.00 28 1018.1
20180118215146 71 221 4.0 7.0 0.00 0.00 0.00 29 1018.1
20180118214646 71 242 4.0 7.0 0.00 0.00 0.00 28 1018.1
20180118214148 71 218 2.0 7.0 0.00 0.00 0.00 29 1018.2
20180118213649 71 245 6.0 9.0 0.00 0.00 0.00 29 1018.3
20180118213207 70 288 3.0 9.0 0.00 0.00 0.00 29 1018.1
20180118212650 71 240 2.0 9.0 0.00 0.00 0.00 29 1018.4
20180118212205 71 209 2.0 9.0 0.00 0.00 0.00 29 1018.6
20180118211650 70 200 8.0 9.0 0.00 0.00 0.00 30 1018.4
20180118211150 70 285 2.0 9.0 0.00 0.00 0.00 29 1018.5
20180118210646 70 247 6.0 8.0 0.00 0.00 0.00 30 1018.5
20180118210236 70 244 3.0 8.0 0.00 0.00 0.00 29 1018.7
20180118205645 70 238 5.0 8.0 0.00 0.00 0.00 30 1019.4
20180118205144 70 240 5.0 9.0 0.00 0.00 0.00 29 1019.5
20180118204645 70 257 4.0 9.0 0.00 0.00 0.00 30 1019.6
20180118204144 70 262 4.0 8.0 0.00 0.00 0.00 30 1019.6
20180118203646 70 231 3.0 9.0 0.00 0.00 0.00 29 1019.6
20180118203148 70 252 4.0 10.0 0.00 0.00 0.00 31 1019.7
20180118202734 70 256 1.0 10.0 0.00 0.00 0.00 30 1019.8
20180118202215 70 285 8.0 9.0 0.00 0.00 0.00 29 1019.9
20180118201716 70 235 4.0 8.0 0.00 0.00 0.00 30 1020.1
20180118200719 70 278 7.0 10.0 0.00 0.00 0.00 30 1020.2
20180118200201 69 276 5.0 10.0 0.00 0.00 0.00 29 1020.4
20180118195705 69 266 5.0 8.0 0.00 0.00 0.00 29 1020.7
20180118195200 69 295 3.0 7.0 0.00 0.00 0.00 28 1020.8
20180118194719 69 276 2.0 6.0 0.00 0.00 0.00 28 1020.9
20180118194202 69 267 2.0 6.0 0.00 0.00 0.00 30 1021.0
20180118193704 69 286 3.0 7.0 0.00 0.00 0.00 29 1021.2
20180118193200 69 259 6.0 8.0 0.00 0.00 0.00 29 1021.3
20180118192703 69 236 5.0 9.0 0.00 0.00 0.00 28 1021.4
20180118192203 69 226 6.0 9.0 0.00 0.00 0.00 28 1021.4
20180118191719 69 273 1.0 6.0 0.00 0.00 0.00 29 1021.7
20180118191159 69 185 3.0 6.0 0.00 0.00 0.00 28 1021.6
20180118190700 69 219 4.0 8.0 0.00 0.00 0.00 29 1021.7
20180118190158 69 263 3.0 8.0 0.00 0.00 0.00 29 1021.8
20180118185658 69 251 5.0 7.0 0.00 0.00 0.00 29 1021.9
20180118185215 69 252 2.0 7.0 0.00 0.00 0.00 28 1022.0
20180118184657 69 250 4.0 7.0 0.00 0.00 0.00 28 1022.2
20180118184159 69 255 3.0 7.0 0.00 0.00 0.00 28 1022.4
20180118183657 69 230 4.0 6.0 0.00 0.00 0.00 29 1022.4
20180118183159 68 147 2.0 8.0 0.00 0.00 0.00 31 1022.2
20180118182657 68 249 1.0 8.0 0.00 0.00 0.00 30 1022.3
20180118182156 69 226 3.0 7.0 0.00 0.00 0.00 29 1022.7
20180118181658 69 227 3.0 5.0 0.00 0.00 0.00 29 1022.7
20180118181157 68 216 2.0 5.0 0.00 0.00 0.00 28 1022.5
20180118180714 68 198 1.0 5.0 0.00 0.00 0.00 28 1022.5
20180118180201 68 199 3.0 6.0 0.00 0.00 0.00 28 1022.5
20180118175657 68 200 2.0 7.0 0.00 0.00 0.00 29 1022.5
20180118175155 68 176 3.0 7.0 0.00 0.00 0.00 29 1022.6
20180118174656 68 216 5.0 5.0 0.00 0.00 0.00 30 1022.6
20180118174155 68 200 1.0 2.0 0.00 0.00 0.00 30 1022.6
20180118173656 67 90 0.0 2.0 0.00 0.00 0.00 28 1022.6
20180118173154 67 120 1.0 1.0 0.00 0.00 0.00 28 1022.6
20180118172712 67 115 0.0 2.0 0.00 0.00 0.00 30 1022.6
20180118172155 66 106 0.0 2.0 0.00 0.00 0.00 30 1022.4
20180118171656 65 108 1.0 1.0 0.00 0.00 0.00 34 1022.4
20180118171155 64 49 0.0 1.0 0.00 0.00 0.00 30 1022.0
20180118170701 63 49 0.0 1.0 0.00 0.00 0.00 31 1022.0
20180118170155 62 49 0.0 2.0 0.00 0.00 0.00 35 1021.8
20180118165654 61 46 0.0 2.0 0.00 0.00 0.00 36 1021.8
20180118165154 60 46 2.0 2.0 0.00 0.00 0.00 39 1021.7
20180118164654 60 47 2.0 2.0 0.00 0.00 0.00 40 1021.6
20180118164211 59 60 0.0 1.0 0.00 0.00 0.00 39 1021.5
20180118163655 58 60 0.0 1.0 0.00 0.00 0.00 39 1021.2
20180118163155 57 32 0.0 3.0 0.00 0.00 0.00 45 1021.1
20180118162656 56 32 1.0 4.0 0.00 0.00 0.00 47 1020.9
20180118162152 54 42 3.0 4.0 0.00 0.00 0.00 47 1020.5
20180118161654 54 28 3.0 4.0 0.00 0.00 0.00 49 1020.5
20180118160706 52 39 3.0 5.0 0.00 0.00 0.00 48 1020.1
20180118160148 51 36 2.0 6.0 0.00 0.00 0.00 51 1020.1
20180118155709 50 46 4.0 7.0 0.00 0.00 0.00 51 1019.8
20180118155159 50 40 3.0 7.0 0.00 0.00 0.00 51 1019.8
20180118154653 50 29 5.0 6.0 0.00 0.00 0.00 51 1019.6
20180118154152 49 51 4.0 6.0 0.00 0.00 0.00 51 1019.4
20180118153651 49 63 5.0 7.0 0.00 0.00 0.00 52 1019.3
20180118153150 49 30 3.0 7.0 0.00 0.00 0.00 51 1019.3
20180118152652 49 46 5.0 7.0 0.00 0.00 0.00 51 1019.2
20180118152152 49 37 5.0 7.0 0.00 0.00 0.00 50 1019.1
20180118151654 49 32 5.0 7.0 0.00 0.00 0.00 49 1019.1
20180118151152 49 38 5.0 8.0 0.00 0.00 0.00 49 1019.1
20180118150711 49 37 6.0 8.0 0.00 0.00 0.00 48 1019.1
20180118150148 49 47 4.0 8.0 0.00 0.00 0.00 48 1019.1
20180118145653 49 45 4.0 8.0 0.00 0.00 0.00 48 1019.1
20180118145148 49 24 6.0 6.0 0.00 0.00 0.00 48 1019.0
20180118144153 49 25 5.0 7.0 0.00 0.00 0.00 49 1019.0
20180118143648 49 44 5.0 7.0 0.00 0.00 0.00 50 1018.9
20180118143146 48 56 5.0 7.0 0.00 0.00 0.00 50 1018.9
20180118142647 49 38 6.0 8.0 0.00 0.00 0.00 50 1018.9
20180118142145 49 44 6.0 8.0 0.00 0.00 0.00 49 1018.9
20180118141644 49 34 6.0 7.0 0.00 0.00 0.00 50 1018.9
20180118141202 48 35 5.0 7.0 0.00 0.00 0.00 50 1019.1
20180118140643 48 56 6.0 7.0 0.00 0.00 0.00 51 1019.1
20180118140143 48 36 3.0 7.0 0.00 0.00 0.00 51 1018.9
20180118135643 49 57 5.0 8.0 0.00 0.00 0.00 50 1018.0
20180118135143 49 29 7.0 8.0 0.00 0.00 0.00 49 1018.0
20180118134644 50 32 5.0 7.0 0.00 0.00 0.00 49 1018.2
20180118134142 50 51 6.0 7.0 0.00 0.00 0.00 47 1018.1
20180118133644 50 55 5.0 7.0 0.00 0.00 0.00 47 1018.0
20180118133141 50 26 6.0 7.0 0.00 0.00 0.00 48 1018.0
20180118132641 50 32 6.0 7.0 0.00 0.00 0.00 47 1018.0
20180118132159 50 42 5.0 7.0 0.00 0.00 0.00 46 1017.9